TimeCDT,TemperatureF,Dew PointF,Humidity,Sea Level PressureIn,VisibilityMPH,Wind Direction,Wind SpeedMPH,Gust SpeedMPH,PrecipitationIn,Events,Conditions,WindDirDegrees,DateUTC
12:56 AM,54.0,32.0,43,29.79,10.0,SSW,11.5,-,N/A,,Overcast,200,2012-10-09 05:56:00
1:56 AM,54.9,32.0,42,29.79,10.0,SSW,13.8,23.0,N/A,,Clear,200,2012-10-09 06:56:00
2:56 AM,54.0,32.9,45,29.79,10.0,SW,13.8,24.2,N/A,,Mostly Cloudy,220,2012-10-09 07:56:00
3:56 AM,52.0,34.9,52,29.79,10.0,SW,8.1,-,0.00,,Mostly Cloudy,220,2012-10-09 08:56:00
4:56 AM,52.0,34.9,52,29.79,10.0,Calm,Calm,-,0.00,Rain,Light Rain,0,2012-10-09 09:56:00
5:56 AM,50.0,37.9,63,29.79,10.0,South,8.1,-,0.00,Rain,Light Rain,190,2012-10-09 10:56:00
6:56 AM,46.9,41.0,80,29.80,8.0,Calm,Calm,-,0.01,Rain,Light Rain,0,2012-10-09 11:56:00
7:56 AM,45.9,43.0,90,29.81,7.0,Calm,Calm,-,0.02,Rain,Light Rain,0,2012-10-09 12:56:00
8:28 AM,44.6,44.6,100,29.80,2.5,Calm,Calm,-,0.04,Rain,Light Rain,0,2012-10-09 13:28:00
8:41 AM,44.6,44.6,100,29.81,2.5,Calm,Calm,-,0.06,Rain,Light Rain,0,2012-10-09 13:41:00
8:44 AM,44.6,44.6,100,29.81,3.0,Calm,Calm,-,0.06,Rain,Light Rain,0,2012-10-09 13:44:00
8:56 AM,45.0,43.0,93,29.81,2.0,Calm,Calm,-,0.08,Rain,Light Rain,0,2012-10-09 13:56:00
9:00 AM,44.6,42.8,93,29.80,1.8,Calm,Calm,-,0.01,Rain,Light Rain,0,2012-10-09 14:00:00
9:03 AM,44.6,42.8,93,29.80,2.0,Calm,Calm,-,0.01,Rain,Light Rain,0,2012-10-09 14:03:00
9:07 AM,44.6,42.8,93,29.80,3.0,Calm,Calm,-,0.01,Rain,Light Rain,0,2012-10-09 14:07:00
9:18 AM,44.6,42.8,93,29.80,3.0,Calm,Calm,-,0.04,Rain,Light Rain,0,2012-10-09 14:18:00
9:56 AM,45.0,43.0,93,29.80,6.0,Calm,Calm,-,0.06,Rain,Light Rain,0,2012-10-09 14:56:00
10:56 AM,45.9,43.9,93,29.78,10.0,Calm,Calm,-,0.01,,Overcast,0,2012-10-09 15:56:00
11:27 AM,46.4,44.6,93,29.77,10.0,Calm,Calm,-,N/A,,Overcast,0,2012-10-09 16:27:00
11:56 AM,46.9,45.0,93,29.76,6.0,Calm,Calm,-,0.00,Rain,Light Rain,0,2012-10-09 16:56:00
12:56 PM,46.9,45.9,96,29.77,2.0,SW,8.1,-,0.03,Rain,Light Rain,230,2012-10-09 17:56:00
1:12 PM,46.4,46.4,100,29.76,3.0,WSW,6.9,-,0.01,Rain,Light Rain,240,2012-10-09 18:12:00
1:28 PM,46.4,46.4,100,29.75,3.0,SW,5.8,-,0.03,Rain,Light Rain,230,2012-10-09 18:28:00
1:56 PM,47.8,46.9,97,29.75,2.5,SW,8.1,-,0.05,Rain,Light Rain,230,2012-10-09 18:56:00
2:05 PM,48.2,46.4,93,29.75,3.0,SW,8.1,-,0.01,Rain,Light Rain,230,2012-10-09 19:05:00
2:13 PM,48.2,46.4,93,29.76,2.5,SW,11.5,-,0.02,Rain,Light Rain,230,2012-10-09 19:13:00
2:20 PM,48.2,46.4,93,29.76,2.5,SW,8.1,-,0.02,Rain,Light Rain,230,2012-10-09 19:20:00
2:38 PM,48.2,46.4,93,29.76,2.5,SW,12.7,18.4,0.04,Rain,Light Rain,230,2012-10-09 19:38:00
2:42 PM,48.2,46.4,93,29.76,3.0,WSW,10.4,18.4,0.04,Rain,Light Rain,240,2012-10-09 19:42:00
2:56 PM,46.9,43.9,89,29.78,2.0,WNW,18.4,28.8,0.06,Rain,Light Rain,290,2012-10-09 19:56:00
3:00 PM,46.4,42.8,87,29.79,3.0,WNW,16.1,24.2,0.00,Rain,Light Rain,300,2012-10-09 20:00:00
3:56 PM,43.0,41.0,93,29.81,5.0,West,9.2,-,0.02,Rain,Light Rain,280,2012-10-09 20:56:00
4:11 PM,42.8,41.0,93,29.81,5.0,West,9.2,-,0.00,Rain,Light Rain,280,2012-10-09 21:11:00
4:48 PM,42.8,41.0,93,29.82,4.0,West,10.4,-,0.04,Rain,Light Rain,280,2012-10-09 21:48:00
4:56 PM,43.0,39.9,89,29.82,4.0,West,10.4,19.6,0.04,Rain,Light Rain,280,2012-10-09 21:56:00
5:06 PM,42.8,39.2,87,29.82,9.0,West,8.1,-,0.01,Rain,Light Rain,280,2012-10-09 22:06:00
5:56 PM,41.9,41.0,97,29.82,10.0,Calm,Calm,-,0.01,,Clear,0,2012-10-09 22:56:00
6:56 PM,41.0,39.9,96,29.84,10.0,SW,5.8,-,N/A,,Partly Cloudy,230,2012-10-09 23:56:00
7:56 PM,41.0,39.9,96,29.84,10.0,Calm,Calm,-,N/A,,Overcast,0,2012-10-10 00:56:00
8:56 PM,41.9,39.9,93,29.85,10.0,WSW,8.1,-,0.00,,Overcast,240,2012-10-10 01:56:00
9:56 PM,39.9,38.8,96,29.85,10.0,WSW,6.9,-,N/A,,Scattered Clouds,250,2012-10-10 02:56:00
10:56 PM,37.9,37.9,100,29.86,10.0,Calm,Calm,-,N/A,,Partly Cloudy,0,2012-10-10 03:56:00
11:56 PM,38.8,34.9,86,29.87,6.0,West,8.1,-,N/A,,Clear,280,2012-10-10 04:56:00